Weather in Nambour

Australia     26°37′39″S   152°57′36″E
temp.,
°C
wind,
m/s
gust,
m/s
humid.,
%
clouds,
%
prec.,
mm/h
press.,
hPa
HPBL,
m
20 june, sun
sun2001:00+12wsw3106543 0.0 1015364
04:00+9wsw24801 0.0 101590
07:00+9wsw23803 0.0 101767
10:00+18ssw26512 0.0 1018947
13:00+20sse354986 0.0 10161637
16:00+19se25583 0.0 1016695
19:00+13ssw148819 0.1 101988
22:00+14ssw26800 0.2 1020277
21 june, mon
mon2101:00+11wsw23947 0.0 102066
04:00+10sw239512 0.0 102076
07:00+10sw129315 0.0 102154
10:00+18s245312 0.0 1022700
13:00+21se34442 0.0 10201448
16:00+18se255958 0.0 1020538
19:00+13ssw25881 0.0 1023159
22:00+11ssw299236 0.0 1024271
22 june, tue
tue2201:00+12ssw398644 0.0 1024381
04:00+10ssw299470 0.0 1024295
07:00+12ssw3108682 0.2 1026404
10:00+16s396679 0.3 1027752
13:00+17sse477524 0.3 1025995
16:00+16sse397958 1.2 1025645
19:00+16sse266990 0.2 1027411
22:00+15s278774 0.4 1027337
23 june, wed
wed2301:00+14ssw148165 0.1 1026157
04:00+15ssw1383100 0.3 1026137
07:00+13sw129167 0.0 102762
10:00+18ssw127289 0.3 1027534
13:00+19ne147488 0.8 10241064
16:00+19ene2460100 0.9 10231005
19:00+14n018475 0.0 102437
22:00+15wsw1184100 0.1 102449
24 june, thu
thu2401:00+15n128618 0.1 102251
04:00+13w1295100 0.1 102245
07:00+15w1182100 0.0 102322
10:00+18nne2475100 0.1 1023515
13:00+19n2473100 0.1 1020604
16:00+19n2471100 0.1 1019228
19:00+17wnw1281100 0.1 101966
22:00+15wnw119099 0.1 102037